• In Deutschland
  • Länderverzeichnis
  • Für 7 Tage
  • Wassertemperatur
  • Satellitenkarten
  • Wetterkarte
  • Widgets
  • user-avatar
    Anmelden

    Stündliche Wetter Atar

    Heute, 26 September, Dienstag

    Zeit Temperatur Niederschläge Wind Luftdruck Luftfeuchtigkeit
    00:00 +32°C° 0 mm 5 m/S 729 mmHg 41%
    01:00 +32°C° 0 mm 6 m/S 728 mmHg 41%
    02:00 +32°C° 0 mm 6 m/S 728 mmHg 41%
    03:00 +32°C° 0 mm 6 m/S 728 mmHg 41%
    04:00 +30°C° 0 mm 6 m/S 728 mmHg 40%
    05:00 +30°C° 0 mm 6 m/S 728 mmHg 40%
    06:00 +30°C° 0 mm 6 m/S 728 mmHg 39%
    07:00 +30°C° 0 mm 7 m/S 728 mmHg 38%
    08:00 +30°C° 0 mm 7 m/S 728 mmHg 37%
    09:00 +32°C° 0 mm 8 m/S 728 mmHg 36%
    10:00 +33°C° 0 mm 8 m/S 728 mmHg 35%
    11:00 +33°C° 0 mm 8 m/S 729 mmHg 34%
    12:00 +34°C° 0 mm 9 m/S 728 mmHg 31%
    13:00 +35°C° 0 mm 9 m/S 727 mmHg 29%
    14:00 +37°C° 0 mm 10 m/S 727 mmHg 26%
    15:00 +37°C° 0 mm 9 m/S 727 mmHg 25%
    16:00 +37°C° 0 mm 9 m/S 726 mmHg 24%
    17:00 +38°C° 0 mm 9 m/S 726 mmHg 23%
    18:00 +37°C° 0 mm 8 m/S 727 mmHg 24%
    19:00 +37°C° 0 mm 8 m/S 727 mmHg 25%
    20:00 +35°C° 0 mm 7 m/S 727 mmHg 26%
    21:00 +35°C° 0 mm 7 m/S 727 mmHg 27%
    22:00 +34°C° 0 mm 7 m/S 727 mmHg 28%
    23:00 +34°C° 0 mm 6 m/S 727 mmHg 29%

    Morgen, 27 September, Mittwoch

    Zeit Temperatur Niederschläge Wind Luftdruck Luftfeuchtigkeit
    00:00 +33°C° 0 mm 6 m/S 726 mmHg 30%
    01:00 +33°C° 0 mm 6 m/S 726 mmHg 32%
    02:00 +32°C° 0 mm 6 m/S 726 mmHg 34%
    03:00 +32°C° 0 mm 6 m/S 726 mmHg 34%
    04:00 +32°C° 0 mm 6 m/S 726 mmHg 34%
    05:00 +32°C° 0 mm 7 m/S 726 mmHg 35%
    06:00 +32°C° 0 mm 8 m/S 727 mmHg 33%
    07:00 +33°C° 0 mm 9 m/S 727 mmHg 32%
    08:00 +34°C° 0 mm 10 m/S 727 mmHg 30%
    09:00 +35°C° 0 mm 9 m/S 728 mmHg 26%
    10:00 +38°C° 0 mm 9 m/S 728 mmHg 23%
    11:00 +40°C° 0 mm 9 m/S 728 mmHg 19%
    12:00 +40°C° 0 mm 8 m/S 727 mmHg 17%
    13:00 +41°C° 0 mm 7 m/S 726 mmHg 15%
    14:00 +42°C° 0 mm 6 m/S 726 mmHg 13%
    15:00 +42°C° 0 mm 5 m/S 726 mmHg 13%
    16:00 +42°C° 0 mm 5 m/S 726 mmHg 13%
    17:00 +41°C° 0 mm 4 m/S 726 mmHg 13%
    18:00 +40°C° 0 mm 4 m/S 726 mmHg 14%
    19:00 +38°C° 0 mm 4 m/S 727 mmHg 15%
    20:00 +37°C° 0 mm 4 m/S 727 mmHg 16%
    21:00 +37°C° 0 mm 4 m/S 727 mmHg 17%
    22:00 +36°C° 0 mm 4 m/S 727 mmHg 18%
    23:00 +35°C° 0 mm 4 m/S 727 mmHg 19%

    übermorgen, 28 September, Donnerstag

    Zeit Temperatur Niederschläge Wind Luftdruck Luftfeuchtigkeit
    00:00 +35°C° 0 mm 5 m/S 727 mmHg 20%
    01:00 +34°C° 0 mm 5 m/S 727 mmHg 22%
    02:00 +34°C° 0 mm 6 m/S 726 mmHg 23%
    03:00 +34°C° 0 mm 6 m/S 727 mmHg 24%
    04:00 +33°C° 0 mm 6 m/S 727 mmHg 26%
    05:00 +33°C° 0 mm 6 m/S 727 mmHg 28%
    06:00 +34°C° 0 mm 7 m/S 727 mmHg 26%
    07:00 +35°C° 0 mm 8 m/S 728 mmHg 24%
    08:00 +37°C° 0 mm 9 m/S 728 mmHg 22%
    09:00 +39°C° 0 mm 8 m/S 728 mmHg 19%
    10:00 +41°C° 0 mm 8 m/S 728 mmHg 16%
    11:00 +44°C° 0 mm 8 m/S 729 mmHg 12%
    12:00 +44°C° 0 mm 8 m/S 728 mmHg 11%
    13:00 +45°C° 0 mm 7 m/S 727 mmHg 10%
    14:00 +45°C° 0 mm 7 m/S 727 mmHg 9%
    15:00 +45°C° 0 mm 7 m/S 727 mmHg 10%
    16:00 +44°C° 0 mm 7 m/S 726 mmHg 10%
    17:00 +44°C° 0 mm 6 m/S 726 mmHg 10%
    18:00 +42°C° 0 mm 6 m/S 727 mmHg 11%
    19:00 +40°C° 0 mm 5 m/S 727 mmHg 13%
    20:00 +38°C° 0 mm 4 m/S 728 mmHg 14%
    21:00 +39°C° 0 mm 5 m/S 728 mmHg 15%
    22:00 +37°C° 0 mm 5 m/S 728 mmHg 17%
    23:00 +36°C° 0 mm 6 m/S 728 mmHg 18%

    29 September, Freitag

    Zeit Temperatur Niederschläge Wind Luftdruck Luftfeuchtigkeit
    00:00 +36°C° 0 mm 7 m/S 727 mmHg 20%
    01:00 +35°C° 0 mm 7 m/S 727 mmHg 21%
    02:00 +35°C° 0 mm 8 m/S 726 mmHg 23%
    03:00 +34°C° 0 mm 8 m/S 726 mmHg 24%
    04:00 +34°C° 0 mm 8 m/S 727 mmHg 25%
    05:00 +33°C° 0 mm 8 m/S 727 mmHg 25%
    06:00 +34°C° 0 mm 9 m/S 727 mmHg 24%
    07:00 +35°C° 0 mm 9 m/S 728 mmHg 22%
    08:00 +37°C° 0 mm 10 m/S 728 mmHg 20%
    09:00 +38°C° 0 mm 10 m/S 728 mmHg 18%
    10:00 +40°C° 0 mm 10 m/S 728 mmHg 16%
    11:00 +43°C° 0 mm 9 m/S 728 mmHg 13%
    12:00 +44°C° 0 mm 9 m/S 728 mmHg 12%
    13:00 +44°C° 0 mm 8 m/S 727 mmHg 11%
    14:00 +45°C° 0 mm 7 m/S 727 mmHg 10%
    15:00 +45°C° 0 mm 6 m/S 727 mmHg 10%
    16:00 +44°C° 0 mm 6 m/S 727 mmHg 10%
    17:00 +43°C° 0 mm 5 m/S 727 mmHg 11%
    18:00 +42°C° 0 mm 5 m/S 727 mmHg 12%
    19:00 +40°C° 0 mm 4 m/S 728 mmHg 13%
    20:00 +38°C° 0 mm 3 m/S 728 mmHg 14%
    21:00 +38°C° 0 mm 4 m/S 728 mmHg 15%
    22:00 +37°C° 0 mm 4 m/S 728 mmHg 16%
    23:00 +36°C° 0 mm 5 m/S 728 mmHg 17%

    30 September, Samstag

    Zeit Temperatur Niederschläge Wind Luftdruck Luftfeuchtigkeit
    00:00 +36°C° 0 mm 5 m/S 727 mmHg 18%
    01:00 +35°C° 0 mm 6 m/S 727 mmHg 20%
    02:00 +35°C° 0 mm 6 m/S 727 mmHg 21%
    03:00 +34°C° 0 mm 6 m/S 727 mmHg 21%
    04:00 +34°C° 0 mm 6 m/S 727 mmHg 22%
    05:00 +33°C° 0 mm 6 m/S 727 mmHg 23%
    06:00 +34°C° 0 mm 7 m/S 727 mmHg 22%
    07:00 +35°C° 0 mm 7 m/S 728 mmHg 21%
    08:00 +37°C° 0 mm 8 m/S 728 mmHg 20%
    09:00 +38°C° 0 mm 8 m/S 728 mmHg 17%
    10:00 +40°C° 0 mm 8 m/S 728 mmHg 15%
    11:00 +43°C° 0 mm 8 m/S 728 mmHg 13%
    12:00 +44°C° 0 mm 8 m/S 727 mmHg 12%
    13:00 +45°C° 0 mm 7 m/S 727 mmHg 11%
    14:00 +45°C° 0 mm 7 m/S 726 mmHg 10%
    15:00 +45°C° 0 mm 7 m/S 726 mmHg 10%
    16:00 +44°C° 0 mm 6 m/S 726 mmHg 11%
    17:00 +44°C° 0 mm 6 m/S 726 mmHg 11%
    18:00 +41°C° 0 mm 6 m/S 726 mmHg 13%
    19:00 +40°C° 0 mm 6 m/S 727 mmHg 14%
    20:00 +39°C° 0 mm 5 m/S 727 mmHg 16%
    21:00 +39°C° 0 mm 5 m/S 727 mmHg 17%
    22:00 +37°C° 0 mm 5 m/S 727 mmHg 18%
    23:00 +36°C° 0 mm 5 m/S 727 mmHg 19%

    1 Oktober, Sonntag

    Zeit Temperatur Niederschläge Wind Luftdruck Luftfeuchtigkeit
    00:00 +35°C° 0 mm 6 m/S 727 mmHg 20%
    01:00 +35°C° 0 mm 6 m/S 726 mmHg 21%
    02:00 +34°C° 0 mm 6 m/S 726 mmHg 21%
    03:00 +33°C° 0 mm 6 m/S 726 mmHg 22%
    04:00 +33°C° 0 mm 6 m/S 726 mmHg 23%
    05:00 +32°C° 0 mm 6 m/S 726 mmHg 24%
    06:00 +33°C° 0 mm 6 m/S 727 mmHg 23%
    07:00 +34°C° 0 mm 6 m/S 727 mmHg 22%
    08:00 +34°C° 0 mm 7 m/S 727 mmHg 21%
    09:00 +36°C° 0 mm 7 m/S 727 mmHg 18%
    10:00 +39°C° 0 mm 7 m/S 727 mmHg 16%
    11:00 +41°C° 0 mm 7 m/S 727 mmHg 13%
    12:00 +42°C° 0 mm 6 m/S 726 mmHg 13%
    13:00 +44°C° 0 mm 6 m/S 726 mmHg 12%
    14:00 +43°C° 0 mm 5 m/S 725 mmHg 11%
    15:00 +43°C° 0 mm 5 m/S 725 mmHg 11%
    16:00 +42°C° 0 mm 5 m/S 725 mmHg 11%
    17:00 +42°C° 0 mm 5 m/S 725 mmHg 12%
    18:00 +41°C° 0 mm 5 m/S 726 mmHg 13%
    19:00 +40°C° 0 mm 5 m/S 726 mmHg 15%
    20:00 +39°C° 0 mm 5 m/S 726 mmHg 16%
    21:00 +37°C° 0 mm 5 m/S 726 mmHg 17%
    22:00 +36°C° 0 mm 5 m/S 726 mmHg 18%
    23:00 +35°C° 0 mm 5 m/S 726 mmHg 19%
    Mehr zeigen